Regional Weather Roundup
Issued by NWS

Home | Current Version | Previous Version | Text Only | Print | Product List | Glossary On
Versions: 1 2 3 4 5 6 7 8 9 10 11 12 13 14 15 16 17 18 19 20 21 22 23 24 25 26 27 28 29 30 31 32 33 34 35 36 37 38 39 40 41 42 43 44 45 46 47 48 49 50
000
ASUS46 KSEW 260410
RWRWA

WASHINGTON REGIONAL WEATHER ROUNDUP
NATIONAL WEATHER SERVICE SEATTLE WA
900 PM PDT MON MAY 25 2015

NOTE:"FAIR" INDICATES FEW OR NO CLOUDS BELOW 12,000 FEET WITH NO
SIGNIFICANT WEATHER AND/OR OBSTRUCTIONS TO VISIBILITY.

WAZ505-507>509-260500-
SEATTLE, TACOMA, EVERETT, AND VICINITY

CITY           SKY/WX    TMP DP  RH WIND       PRES   REMARKS
EVERETT        CLOUDY    57  49  74 SW6       30.01F
BOEING FIELD   CLOUDY    61  50  67 S3        30.01S
RENTON         CLOUDY    59  50  72 CALM      30.01S
SEATAC AIRPORT CLOUDY    58  50  75 S5        30.02S
JBLM-MCCHORD   CLOUDY    57  52  84 NW6       30.02R
PUYALLUP       CLOUDY    57  54  88 CALM      30.02R
BREMERTON      CLOUDY    55  52  88 SW6       30.03R
JBLM-FT LEWIS  CLOUDY    57  52  84 W9        30.01R
TACOMA NARROWS CLOUDY    56  49  77 SW6       30.02R
$$

WAZ001-503-506-510-514-515-260500-
NORTH INTERIOR

CITY           SKY/WX    TMP DP  RH WIND       PRES   REMARKS
BELLINGHAM     CLOUDY    58  52  80 CALM      29.99S
FRIDAY HARBOR  CLEAR     52  48  86 SW5       30.01S
EASTSOUND      CLEAR     59  52  77 S7        29.98S
PORT ANGELES   CLEAR     52  49  89 NW5       30.00F
PORT TOWNSEND  MOCLDY    57  54  88 CALM      30.00S
NAS WHIDBEY    CLEAR     57  54  89 CALM      30.04S
ARLINGTON        N/A     57  46  67 SW5       30.01S
BURLINGTON     CLOUDY    57  52  82 CALM      30.00S
$$

WAZ020-022-039-040-504-511-512-260500-
SOUTHWEST INTERIOR

CITY           SKY/WX    TMP DP  RH WIND       PRES   REMARKS
SHELTON        CLOUDY    53  50  89 SW8       30.00S
OLYMPIA        CLOUDY    54  49  83 SW6       30.02S
CHEHALIS       CLOUDY    57  50  77 CALM      30.03R
KELSO          CLOUDY    55  48  76 NW7       30.06S
VANCOUVER      CLOUDY    60  49  66 NW8       30.01R
SCAPPOOSE, OR  CLEAR     56  49  77 N5        30.01R
PORTLAND, OR   MOCLDY    60  50  69 N7        30.01R
$$

WAZ021-516-517-260500-
WASHINGTON COAST

CITY           SKY/WX    TMP DP  RH WIND       PRES   REMARKS
FORKS          CLOUDY    52  51  97 CALM      30.02S
HOQUIAM        CLOUDY    54  51  90 W8        30.03S FOG
ASTORIA, OR    CLOUDY    54  49  83 W6        30.05S
$$

WAZ019-023-024-040-518-519-260500-
CASCADE MOUNTAINS AND COLUMBIA GORGE

CITY           SKY/WX    TMP DP  RH WIND       PRES   REMARKS
TROUTDALE, OR  CLOUDY    62  50  64 N5        30.00R
THE DALLES, OR CLEAR     63  48  58 NW23G31   29.88S
$$

WAZ026-027-041>044-520-521-260500-
EAST SLOPES

CITY           SKY/WX    TMP DP  RH WIND       PRES   REMARKS
OMAK           CLOUDY    59  49  69 SW7       29.87S
WENATCHEE      PTCLDY    68  42  38 NW15      29.86R
ELLENSBURG     CLEAR     60  44  55 NW13      29.90R
YAKIMA         PTCLDY    68  42  38 W8        29.87R
$$

WAZ028-034-035-260500-
COLUMBIA BASIN

CITY           SKY/WX    TMP DP  RH WIND       PRES   REMARKS
EPHRATA        LGT RAIN  62  52  69 E8G17     29.86R
MOSES LAKE     CLOUDY    66  47  50 NE8       29.87R
PASCO          CLOUDY    67  54  63 E7        29.84R
HERMISTON, OR  LGT RAIN  67  50  54 SW6       29.83S
$$

WAZ036>038-260500-
NORTHEAST WASHINGTON

CITY           SKY/WX    TMP DP  RH WIND       PRES   REMARKS
SPOKANE GEIGER MOCLDY    56  47  71 CALM      29.89R
SPOKANE FELTS  MOCLDY    58  51  78 CALM      29.88R
FAIRCHILD AFB  CLOUDY    54  49  82 W2        29.89R
COEURDALENE,ID MOCLDY    55  48  76 CALM      29.88R
DEER PARK      MOCLDY    54  49  83 MISG      29.89R
$$

WAZ029>033-260500-
SOUTHEAST WASHINGTON

CITY           SKY/WX    TMP DP  RH WIND       PRES   REMARKS
PULLMAN        PTCLDY    57  49  74 CALM      29.90R
LEWISTON, ID   PTCLDY    65  49  56 S3        29.85R
WALLA WALLA    PTCLDY    68  48  48 SE6       29.85R
PENDLETON, OR  CLOUDY    65  47  52 NE5       29.85R
$$



USA.gov is the U.S. government's official web portal to all federal, state and local government web resources and services.